Regional Weather Roundup
Issued by NWS

Home | Current Version | Previous Version | Graphics & Text | Print | Product List | Glossary On
Versions: 1 2 3 4 5 6 7 8 9 10 11 12 13 14 15 16 17 18 19 20 21 22 23 24 25 26 27 28 29 30 31 32 33 34 35 36 37 38 39 40 41 42 43 44 45 46 47 48 49 50
000
ASUS43 KLOT 290808
RWRIL

ILLINOIS REGIONAL WEATHER ROUNDUP
NATIONAL WEATHER SERVICE CHICAGO/ROMEOVILLE IL
300 AM CDT FRI MAY 29 2015

NOTE: "FAIR" INDICATES FEW OR NO CLOUDS BELOW 12,000 FEET WITH NO
SIGNIFICANT WEATHER AND/OR OBSTRUCTIONS TO VISIBILITY.

* THESE STATIONS ARE NOT UNDER NWS QUALITY CONTROL. THEY ALSO MAY NOT
  REPORT WEATHER SUCH AS PRECIPITATION OR FOG.

ILZ001-002-007-009-015-016-024-290900-
NORTHWEST ILLINOIS

CITY           SKY/WX    TMP DP  RH WIND       PRES   REMARKS
MOLINE         CLOUDY    66  61  84 E5        29.99F
STERLING*      CLOUDY    66  61  82 CALM      30.03R
SAVANNA*       CLOUDY    65  59  80 CALM      30.01S
$$

ILZ003-004-008-010-011-017-018-290900-
NORTH CENTRAL ILLINOIS

CITY           SKY/WX    TMP DP  RH WIND       PRES   REMARKS
ROCKFORD       CLOUDY    65  56  72 S6        30.04S
FREEPORT*      LGT RAIN  65  57  75 S6        30.04S
ROCHELLE*      CLOUDY    64  58  79 S5        30.04S
DE KALB*       MOCLDY    63  55  76 S8        30.05S
PERU*          CLOUDY    68  62  79 S5        30.04S
$$

ILZ005-006-012>014-019>023-290900-
NORTHEAST ILLINOIS

CITY           SKY/WX    TMP DP  RH WIND       PRES   REMARKS
CHICAGO-OHARE  MOCLDY    66  57  72 S8        30.05R
CHICAGO-MIDWAY CLOUDY    73  60  63 S7        30.05R
AURORA         MOCLDY    66  55  67 S6        30.05R
LANSING*       CLOUDY    68  63  84 SE3       30.06S
JOLIET*        PTCLDY    70  62  76 S3        30.04F
WAUKEGAN       CLOUDY    60  55  83 SE3       30.04S
DUPAGE AIRPORT MOCLDY    66  57  72 S6        30.04S
KANKAKEE*      PTCLDY    71  64  80 SE8       30.06F
WHEELING       MOCLDY    63  55  75 CALM      30.06R
MORRIS*        MOCLDY    66  59  77 SE5       30.03S
ROMEOVILLE*    PTCLDY    65  59  78 SE7       30.05S
NORTHERLY ISL    N/A     68  58  70 S7          N/A
$$

LMZ740>746-290900-
SOUTHERN LAKE MICHIGAN

STATION/POSITION SKY/WX   TEMP    WIND        PRES    VSBY  WAVE
                          AIR SEA DIR/SP/G                  HT/PER
                          (F)     (DEG/KT/KT) (MB)    (MI)  (FT/S)
SOUTHERN BUOY              49 38  140/ 10/ 12 1018.4F
HARRISON CRIB              62     180/  8/ 10   N/A
BURNHAM HARBOR             70     170/  7/ 10   N/A
BURNS HARBOR               72     160/  8/ 14 1018.6F
MICHIGAN CITY              71     130/  8/ 10   N/A
MICHIGAN CITY 6N           63 55  180/  6/  8   N/A           1
ST. JOSEPH                 65 58  150/ 10/ 10   N/A           1
$$

ILZ025>027-034>036-040-047-049-050-058-095>099-290900-
WEST-CENTRAL ILLINOIS

CITY           SKY/WX    TMP DP  RH WIND       PRES   REMARKS
QUINCY         CLOUDY    69  65  86 SE7       29.97F
GALESBURG*     CLOUDY    67  63  85 SE5       30.00F
MACOMB*        CLOUDY    68  65  91 S8        30.02F
JACKSONVILLE*  MOCLDY    72  66  81 SE7       30.01F
PITTSFIELD*    MOCLDY    68  65  88 SE5       30.00F
$$

ILZ028>032-037-038-041>044-048-051>054-059>061-290900-
CENTRAL ILLINOIS

CITY           SKY/WX    TMP DP  RH WIND       PRES   REMARKS
PONTIAC        CLOUDY    69  64  85 SE6       30.06R
BLOOMINGTON    CLOUDY    67  65  93 S7        30.07R
DECATUR        MOCLDY    65  62  90 CALM      30.05F
PEORIA         MOCLDY    71  64  78 S7        30.02F
LACON*         CLOUDY    68  63  84 CALM      30.03R
LINCOLN*       MOCLDY    69  65  86 S3        30.02S
SPRINGFIELD    MOCLDY    69  65  86 S5        30.03F
TAYLORVILLE    PTCLDY    64  63  94 SE3       30.03F
$$

ILZ033-039-045-046-055>057-062-063-290900-
EAST-CENTRAL ILLINOIS

CITY           SKY/WX    TMP DP  RH WIND       PRES   REMARKS
CHAMPAIGN      MOCLDY    71  64  78 S9        30.06S
DANVILLE*      CLEAR     68  64  85 SE5       30.05S
RANTOUL*       MOCLDY    70  65  84 S5        30.06F
PARIS*         CLEAR     69  65  88 SE6       30.08S
$$

ILZ079-100>102-290900-
SOUTHWEST ILLINOIS

CITY           SKY/WX    TMP DP  RH WIND       PRES   REMARKS
ALTON          MOCLDY    69  69 100 SE3       30.02F
BELLEVILLE     CLOUDY    68  68  99 S1        30.01F
CAHOKIA*       MOCLDY    71  65  81 CALM      30.01F
SPARTA*        CLOUDY    69  65  87 SE3       30.03F
$$

ILZ064>066-069>071-074>076-080>082-084>086-088>090-092>094-290900-
SOUTH-CENTRAL ILLINOIS

CITY           SKY/WX    TMP DP  RH WIND       PRES   REMARKS
CARBONDALE     CLEAR     66  64  93 S5        30.03F
CAIRO*         CLEAR     67  65  96 CALM      30.04F
EFFINGHAM*     CLEAR     67  63  87 SE3       30.06F
MARION         CLEAR     68  66  94 CALM      30.05F
MT. VERNON     CLEAR     64  57  77 CALM      30.05F
CENTRALIA*     CLEAR     66  64  91 SE3       30.04F
SALEM*         PTCLDY    69  65  87 CALM      30.05F
METROPOLIS*    CLEAR     67  67 100 CALM      30.04F FOG
$$

ILZ067-068-072-073-078-083-087-091-290900-
SOUTHEAST ILLINOIS

CITY           SKY/WX    TMP DP  RH WIND       PRES   REMARKS
LAWRENCEVILLE  CLEAR     67  64  90 SE7       30.07F
FLORA*         CLEAR     67  64  89 CALM      30.06S
FAIRFIELD*     CLEAR     69  65  86 CALM      30.04S
HARRISBURG*    CLEAR     67  67  99 CALM      30.06S
ROBINSON*      CLEAR     68  65  89 SE6       30.07F
CARMI*         CLEAR     66  61  82 SE3       30.05S
$$

ABBREVIATIONS USED IN REMARKS
   TC - TEMPERATURE IN CELSIUS
  WCI - WIND CHILL INDEX
   HX - HEAT INDEX
  VSB - VISIBILITY
$$



USA.gov is the U.S. government's official web portal to all federal, state and local government web resources and services.